TimeCDT,TemperatureF,Dew PointF,Humidity,Sea Level PressureIn,VisibilityMPH,Wind Direction,Wind SpeedMPH,Gust SpeedMPH,PrecipitationIn,Events,Conditions,WindDirDegrees,DateUTC
12:15 AM,54.1,46.6,76,29.69,10.0,SSW,18.4,27.6,N/A,,Mostly Cloudy,200,2013-04-07 05:15:00
12:35 AM,54.1,45.7,73,29.69,10.0,SSW,18.4,28.8,N/A,,Mostly Cloudy,200,2013-04-07 05:35:00
12:55 AM,53.8,45.7,74,29.69,10.0,SSW,19.6,-,N/A,,Mostly Cloudy,210,2013-04-07 05:55:00
1:15 AM,53.1,45.5,75,29.69,10.0,SW,17.3,24.2,N/A,,Scattered Clouds,220,2013-04-07 06:15:00
1:35 AM,52.2,45.5,78,29.70,10.0,SW,17.3,23.0,N/A,,Scattered Clouds,220,2013-04-07 06:35:00
1:55 AM,52.2,45.7,79,29.71,10.0,WSW,16.1,24.2,N/A,,Clear,240,2013-04-07 06:55:00
2:15 AM,51.4,45.9,81,29.72,10.0,WSW,17.3,21.9,N/A,,Clear,250,2013-04-07 07:15:00
2:35 AM,51.1,46.4,84,29.73,10.0,West,17.3,23.0,N/A,,Mostly Cloudy,260,2013-04-07 07:35:00
2:55 AM,50.0,45.5,85,29.74,10.0,West,18.4,25.3,N/A,,Overcast,260,2013-04-07 07:55:00
3:15 AM,49.1,44.8,85,29.76,10.0,West,13.8,23.0,N/A,,Overcast,260,2013-04-07 08:15:00
3:35 AM,49.1,45.0,86,29.76,10.0,WSW,11.5,-,N/A,,Overcast,240,2013-04-07 08:35:00
3:55 AM,49.1,44.6,84,29.77,10.0,WSW,13.8,20.7,N/A,,Overcast,240,2013-04-07 08:55:00
4:15 AM,48.7,44.6,86,29.78,10.0,WSW,12.7,19.6,N/A,,Overcast,240,2013-04-07 09:15:00
4:35 AM,48.4,44.1,85,29.79,10.0,West,17.3,24.2,N/A,,Overcast,260,2013-04-07 09:35:00
4:55 AM,47.5,43.2,85,29.80,10.0,West,17.3,25.3,N/A,,Overcast,280,2013-04-07 09:55:00
5:15 AM,46.6,42.1,84,29.81,10.0,West,16.1,-,N/A,,Overcast,270,2013-04-07 10:15:00
5:35 AM,45.5,41.0,84,29.82,10.0,West,15.0,-,N/A,,Mostly Cloudy,270,2013-04-07 10:35:00
5:55 AM,45.5,41.9,87,29.84,10.0,West,12.7,-,N/A,,Mostly Cloudy,260,2013-04-07 10:55:00
6:15 AM,45.3,41.7,87,29.84,10.0,West,11.5,-,N/A,,Overcast,260,2013-04-07 11:15:00
6:35 AM,45.3,41.0,85,29.85,10.0,West,11.5,19.6,N/A,,Overcast,260,2013-04-07 11:35:00
6:55 AM,43.9,41.0,90,29.86,7.0,West,8.1,-,N/A,,Scattered Clouds,270,2013-04-07 11:55:00
7:15 AM,44.1,41.2,90,29.88,7.0,West,9.2,-,N/A,,Scattered Clouds,270,2013-04-07 12:15:00
7:35 AM,44.2,41.4,90,29.89,7.0,West,8.1,-,N/A,,Mostly Cloudy,260,2013-04-07 12:35:00
7:55 AM,44.8,41.9,90,29.90,5.0,West,9.2,-,N/A,,Scattered Clouds,270,2013-04-07 12:55:00
8:15 AM,46.0,42.4,87,29.91,7.0,West,13.8,-,N/A,,Mostly Cloudy,280,2013-04-07 13:15:00
8:35 AM,46.6,42.1,84,29.91,7.0,WNW,9.2,-,N/A,,Overcast,290,2013-04-07 13:35:00
8:55 AM,47.3,41.9,82,29.92,10.0,WNW,10.4,-,N/A,,Mostly Cloudy,290,2013-04-07 13:55:00
9:15 AM,48.0,41.0,77,29.92,10.0,WNW,15.0,19.6,N/A,,Mostly Cloudy,290,2013-04-07 14:15:00
9:35 AM,49.3,41.5,75,29.92,10.0,West,10.4,-,N/A,,Scattered Clouds,280,2013-04-07 14:35:00
9:55 AM,49.6,41.2,73,29.93,10.0,WNW,11.5,-,N/A,,Clear,290,2013-04-07 14:55:00
10:15 AM,50.9,40.6,68,29.93,10.0,West,9.2,17.3,N/A,,Clear,280,2013-04-07 15:15:00
10:35 AM,51.8,40.6,66,29.94,10.0,West,11.5,16.1,N/A,,Clear,270,2013-04-07 15:35:00
10:55 AM,52.7,40.6,64,29.95,10.0,West,10.4,16.1,N/A,,Clear,280,2013-04-07 15:55:00
11:15 AM,53.6,40.6,62,29.95,10.0,West,8.1,11.5,N/A,,Clear,270,2013-04-07 16:15:00
11:35 AM,54.3,40.1,59,29.95,10.0,WNW,9.2,-,N/A,,Clear,290,2013-04-07 16:35:00
11:55 AM,55.8,39.9,55,29.95,10.0,West,8.1,-,N/A,,Clear,260,2013-04-07 16:55:00
12:15 PM,56.5,39.0,52,29.95,10.0,West,9.2,-,N/A,,Clear,280,2013-04-07 17:15:00
12:35 PM,58.3,39.4,49,29.95,10.0,West,13.8,18.4,N/A,,Clear,260,2013-04-07 17:35:00
12:55 PM,59.0,38.3,46,29.95,10.0,WNW,12.7,16.1,N/A,,Clear,290,2013-04-07 17:55:00
1:15 PM,58.8,38.1,46,29.95,10.0,WNW,6.9,-,N/A,,Clear,290,2013-04-07 18:15:00
1:35 PM,59.7,39.0,46,29.94,10.0,WNW,6.9,-,N/A,,Clear,300,2013-04-07 18:35:00
1:55 PM,60.3,38.8,45,29.95,10.0,NW,6.9,-,N/A,,Clear,320,2013-04-07 18:55:00
2:15 PM,61.7,38.1,42,29.94,10.0,NNW,8.1,-,N/A,,Clear,330,2013-04-07 19:15:00
2:35 PM,60.8,37.8,42,29.94,10.0,North,8.1,-,N/A,,Clear,350,2013-04-07 19:35:00
2:55 PM,61.7,37.9,41,29.93,10.0,NNW,4.6,-,N/A,,Clear,340,2013-04-07 19:55:00
3:15 PM,61.3,37.6,41,29.93,10.0,West,5.8,-,N/A,,Clear,270,2013-04-07 20:15:00
3:35 PM,62.2,37.4,40,29.93,10.0,NW,3.5,-,N/A,,Clear,320,2013-04-07 20:35:00
3:55 PM,63.1,37.6,39,29.93,10.0,West,3.5,-,N/A,,Clear,280,2013-04-07 20:55:00
4:15 PM,63.5,37.8,39,29.93,10.0,West,9.2,-,N/A,,Clear,270,2013-04-07 21:15:00
4:35 PM,63.0,37.0,38,29.93,10.0,NW,4.6,-,N/A,,Clear,320,2013-04-07 21:35:00
4:55 PM,64.0,38.5,39,29.93,10.0,NW,3.5,-,N/A,,Clear,310,2013-04-07 21:55:00
5:15 PM,64.2,38.3,38,29.93,10.0,West,3.5,-,N/A,,Clear,260,2013-04-07 22:15:00
5:35 PM,64.2,37.6,37,29.93,10.0,WNW,3.5,-,N/A,,Clear,300,2013-04-07 22:35:00
5:55 PM,64.0,37.2,37,29.93,10.0,Calm,Calm,-,N/A,,Clear,0,2013-04-07 22:55:00
6:15 PM,63.5,37.4,38,29.92,10.0,Calm,Calm,-,N/A,,Clear,0,2013-04-07 23:15:00
6:35 PM,62.2,37.9,41,29.92,10.0,NNE,4.6,-,N/A,,Clear,20,2013-04-07 23:35:00
6:55 PM,59.9,38.3,45,29.92,10.0,NNE,5.8,-,N/A,,Clear,30,2013-04-07 23:55:00
7:15 PM,55.6,38.5,53,29.92,10.0,NE,9.2,-,N/A,,Clear,40,2013-04-08 00:15:00
7:35 PM,52.2,37.8,58,29.93,10.0,NNE,10.4,-,N/A,,Clear,30,2013-04-08 00:35:00
7:55 PM,49.5,36.9,62,29.93,10.0,NNE,8.1,-,N/A,,Clear,30,2013-04-08 00:55:00
8:15 PM,47.1,36.1,66,29.93,10.0,NNE,8.1,-,N/A,,Clear,30,2013-04-08 01:15:00
8:35 PM,45.9,35.8,68,29.94,10.0,NNE,10.4,-,N/A,,Clear,30,2013-04-08 01:35:00
8:55 PM,44.2,35.2,71,29.94,10.0,NNE,8.1,-,N/A,,Clear,30,2013-04-08 01:55:00
9:15 PM,43.7,35.1,72,29.94,10.0,NNE,8.1,-,N/A,,Clear,30,2013-04-08 02:15:00
9:35 PM,42.8,34.9,74,29.94,10.0,NE,9.2,-,N/A,,Clear,40,2013-04-08 02:35:00
9:55 PM,41.5,34.7,77,29.94,10.0,NE,8.1,-,N/A,,Clear,50,2013-04-08 02:55:00
10:15 PM,40.5,34.2,78,29.94,10.0,ENE,4.6,-,N/A,,Clear,60,2013-04-08 03:15:00
10:35 PM,41.7,35.1,77,29.93,10.0,ENE,8.1,-,N/A,,Clear,70,2013-04-08 03:35:00
10:55 PM,42.6,35.6,76,29.92,10.0,ENE,9.2,-,N/A,,Clear,70,2013-04-08 03:55:00
11:15 PM,41.9,35.4,78,29.92,10.0,ENE,8.1,-,N/A,,Clear,60,2013-04-08 04:15:00
11:35 PM,41.9,35.4,78,29.91,10.0,ENE,8.1,-,N/A,,Clear,60,2013-04-08 04:35:00
11:55 PM,41.2,35.6,81,29.90,10.0,ENE,8.1,-,N/A,,Clear,60,2013-04-08 04:55:00